Regional Weather Roundup
Issued by NWS Green Bay, WI

Home | Current Version | Previous Version | Text Only | Print | Product List | Glossary On
Versions: 1 2 3 4 5 6 7 8 9 10 11 12 13 14 15 16 17 18 19 20 21 22 23 24 25 26 27 28 29 30 31 32 33 34 35 36 37 38 39 40 41 42 43 44 45 46 47 48 49 50
000
ASUS43 KGRB 240100
RWRGRB

NORTH-CENTRAL AND NORTHEAST WISCONSIN REGIONAL WEATHER ROUNDUP
NATIONAL WEATHER SERVICE GREEN BAY WI
800 PM CDT FRI JUN 23 2017

WIZ005-009-010>012-018-019-240200-
NORTH CENTRAL WISCONSIN

CITY           SKY/WX    TMP DP  RH WIND       PRES   REMARKS
IRONWOOD       MOCLDY    63  49  60 NW3       29.75R
MANITOWISH WTR NOT AVBL
ARBOR VITAE    NOT AVBL
EAGLE RIVER    NOT AVBL
LAND O LAKES   MOCLDY    63  46  52 NW7       29.77R
RHINELANDER    CLOUDY    64  48  56 NW5       29.76R
PHILLIPS       MOCLDY    64  51  62 W3        29.77R
ANTIGO         NOT AVBL
TOMAHAWK       NOT AVBL
MERRILL        MOCLDY    65  50  56 NW6       29.76S
$$

WIZ013-073-240200-
NORTHEAST WISCONSIN

CITY           SKY/WX    TMP DP  RH WIND       PRES   REMARKS
IRON MOUNTAIN  PTCLDY    66  45  46 NW7       29.70R
MARINETTE      CLEAR     70  49  47 NW8       29.69R
$$

WIZ017-030-035>037-045-240200-
CENTRAL WISCONSIN

CITY           SKY/WX    TMP DP  RH WIND       PRES   REMARKS
MEDFORD        NOT AVBL
WAUSAU         CLOUDY    66  50  56 W14       29.75R
MOSINEE        MOCLDY    64  52  63 W9        29.78R
MARSHFIELD     CLOUDY    65  50  58 W9        29.78R
WISC RAPIDS    MOCLDY    67  52  58 NW9       29.79R
STEVENS POINT  NOT AVBL
WAUPACA        PTCLDY    70  54  56 W7        29.75S
SHAWANO        NOT AVBL
CLINTONVILLE   NOT AVBL
WAUTOMA        MOCLDY    68  55  63 W12G20    29.77R
$$

WIZ038-039-048-051-240200-
FOX VALLEY

CITY           SKY/WX    TMP DP  RH WIND       PRES   REMARKS
NWS GREEN BAY  PTCLDY    68  55  63 W13       29.72R
APPLETON       MOCLDY    66  48  52 W14       29.73R
OSHKOSH        PTCLDY    68  53  58 NW14G22   29.74R
FOND DU LAC    PTCLDY    70  52  52 NW13G21   29.74S
$$

WIZ022-050-052-240200-
EAST CENTRAL WISCONSIN

CITY           SKY/WX    TMP DP  RH WIND       PRES   REMARKS
EPHRAIM        NOT AVBL
WASHINGTON ISL NOT AVBL
STURGEON BAY     N/A     69  54  58 W9          N/A
MANITOWOC      NOT AVBL
SHEBOYGAN      MOCLDY    69  54  58 W9        29.72R
$$

LMZ563-521-522-541>543-240200-
LAKESHORE

STATION/POSITION TIME  TEMP    WIND        PRES    VSBY  WAVE
                       AIR SEA DIR/SP/G                  HT/PER
                 (UTC) (F)     (DEG/KT/KT) (MB)    (MI)  (FT/S)
SHEBOYGAN LKSHOR 0000   73     310/ 14/ 19 1005.3R
KEWAUNEE LKSHORE 0030   71     320/  8/ 12 1005.2R
NORTHPORT PIER   0040   71     290/  5/ 10 1004.7R
N MID LAKE BUOY  2350   62 57  350/  6/  8 1004.2R         1
S GREEN BAY BUOY 0030   70     280/ 16/ 17 1005.1R
CHAMBERS ISLAND  0040   70     310/  2/  6 1004.7R
MENOMINEE LKSHOR 0030          290/  8/ 13 1004.4R
$$




USA.gov is the U.S. government's official web portal to all federal, state and local government web resources and services.